{"data":{"norad_id":49294,"epoch":"2026-05-25T02:34:06.439008Z","epoch_age_seconds":61706,"freshness":"FRESH","line1":"1 49294U 21090R   26145.10701897  .00000010  00000+0 -61804-5 0  9996","line2":"2 49294  87.9164 279.0548 0002125  79.8411 280.2962 13.20771230227938","mean_motion":13.2077123,"eccentricity":0.0002125,"inclination_deg":87.9164,"raan_deg":279.0548,"arg_perigee_deg":79.8411,"mean_anomaly_deg":280.2962,"bstar":-6.1804e-6,"rev_number":22793,"period_min":109.02720829254,"perigee_km":1180.1691157249,"apogee_km":1183.3820785787,"semimajor_km":7559.9125971518,"source":"CELESTRAK","updated_at":"2026-05-25T13:38:22.522527Z"}}